Temperature
18 18 18 18 18 18 18 18 18 18 18 18 18 18 18 18 18 18 18 18 18 18 18 18 18 17 17 17 17 17 17 17 17 17 16 16 16 16 16 16 16 16 16
18 18 18 18 18 18 18 18 18 18 18 18 18 18 18 18 18 18 18 18 18 18 18 18 18 17 17 17 17 17 17 17 17 16 16 16 16 16 16 16 16 16 16
18 18 18 18 18 18 18 18 18 18 18 18 18 18 18 18 18 18 18 18 18 18 18 18 18 17 17 17 17 17 17 17 17 17 16 16 16 16 16 16 16 16 16
18 18 18 18 18 18 18 18 18 18 18 18 18 18 18 18 18 18 18 18 18 18 18 18 17 17 17 17 17 17 17 17 17 17 16 16 16 16 16 16 16 16 16
18 18 18 18 18 18 18 18 18 18 18 18 18 18 18 18 18 18 18 18 18 17 17 17 17 17 17 17 17 17 17 17 17 17 17 16 16 16 16 16 16 16 16
18 18 18 18 18 18 18 18 18 18 18 18 18 18 18 18 18 18 18 18 18 17 17 17 17 17 17 17 17 17 17 17 17 17 17 17 16 16 16 16 16 16 16
18 18 18 18 18 18 18 18 18 18 18 18 18 18 18 18 18 18 18 18 18 17 17 17 17 17 17 17 17 17 17 17 17 17 17 16 16 16 16 16 16 16 15
18 18 18 18 18 18 18 18 18 18 18 18 18 18 18 18 18 18 18 18 18 17 17 17 17 17 17 17 17 17 17 17 17 17 16 16 16 16 16 16 16 16 15
18 18 18 18 18 18 18 18 18 18 18 18 18 18 18 18 17 18 18 18 18 17 17 17 17 17 17 17 17 17 17 17 17 16 16 16 16 16 16 16 15 15 15
18 18 18 18 18 18 18 18 18 18 18 18 18 18 18 18 17 17 17 17 17 17 17 17 17 17 17 17 17 17 17 16 16 16 16 16 16 16 15 15 15 15 15
18 18 18 18 18 18 18 18 18 18 17 17 17 18 18 18 17 17 17 17 17 17 17 17 17 17 17 17 16 16 16 16 16 16 16 16 16 15 15 15 15 15 15
19 19 18 18 18 18 18 18 18 18 17 17 17 17 17 17 17 17 17 17 17 17 17 17 17 17 16 16 16 16 16 16 16 16 16 16 16 15 15 15 15 15 15
19 19 18 18 18 18 18 17 17 17 17 17 17 17 17 17 17 17 17 17 16 17 17 17 16 16 16 16 16 16 16 16 16 16 16 16 15 15 15 15 15 15 14
19 19 18 18 18 18 18 17 17 17 17 17 17 17 17 17 17 17 17 17 16 16 16 16 16 16 16 16 16 15 15 15 15 15 15 15 15 15 15 15 15 14 14
19 19 18 18 18 18 18 17 17 17 17 17 17 17 17 17 17 17 16 16 16 16 16 16 16 16 15 15 15 15 15 15 15 15 15 15 15 14 14 14 14 14 14
19 19 18 18 18 18 18 18 17 17 17 17 17 17 17 17 17 16 16 16 16 16 15 15 15 15 15 15 15 15 15 15 14 14 14 14 14 14 14 14 14 14 13
19 19 18 18 18 18 18 17 17 17 17 17 17 17 16 16 16 16 16 16 16 16 15 15 15 15 15 15 15 15 14 14 14 14 14 14 14 14 14 14 13 13 13
19 18 18 18 18 18 17 17 17 17 17 16 16 16 16 16 16 16 16 16 15 15 15 15 15 15 14 14 14 14 14 14 14 14 14 14 13 13 13 13 13 13 13
19 18 18 18 18 17 17 17 17 17 16 16 16 16 16 16 16 16 15 15 15 15 15 15 15 14 14 14 14 14 13 13 13 13 13 13 13 13 13 13 13 13 12
18 18 18 18 17 17 17 17 17 16 16 16 16 16 16 16 16 15 15 15 15 15 14 14 14 14 13 13 13 13 13 13 13 13 13 13 13 13 12 12 12 12 12
18 18 18 17 17 17 17 17 16 16 16 16 16 16 15 15 15 15 15 15 15 14 14 14 14 13 13 13 13 13 12 12 12 12 12 12 12 12 12 12 12 12 12
18 18 17 17 17 17 17 17 16 16 16 16 16 15 15 15 15 15 14 14 14 14 14 14 13 13 13 13 13 12 12 12 12 12 12 12 12 12 12 12 11 11 11
17 17 17 17 17 17 17 17 16 16 16 16 15 15 14 14 14 14 14 14 14 14 13 13 13 13 13 13 12 12 12 12 12 12 11 11 11 11 11 11 11 11 11
17 17 17 17 17 17 16 16 16 16 16 15 15 15 14 14 14 14 14 14 13 13 13 13 13 13 13 13 12 12 12 12 12 11 11 11 11 11 11 11 11 11 10
17 17 17 17 17 17 16 16 16 15 15 15 14 14 14 14 14 14 13 13 13 13 13 13 13 13 13 12 12 12 12 11 11 11 11 11 10 10 10 11 10 10 10
17 16 16 16 16 16 16 16 16 15 15 14 14 14 14 14 14 14 13 13 13 13 13 13 13 12 12 12 12 12 11 11 11 11 11 11 10 10 10 10 10 10 10
Wind_Speed
2 2 2 3 5 6 6 4 3 3 3 2 3 2 2 2 4 8 10 15 15 14 13 12 12 11 11 11 10 10 9 9 9 8 9 9 8 8 8 8 7 7 6
3 2 2 2 2 3 4 4 3 3 2 2 1 1 1 2 3 7 10 12 14 14 14 13 13 12 12 12 11 11 11 10 10 10 10 10 9 9 9 9 9 8 8
4 2 2 2 2 3 3 2 2 2 2 2 2 2 1 2 3 4 8 10 12 14 14 14 13 13 13 13 13 12 12 12 12 12 11 11 11 11 11 10 10 10 9
4 3 2 2 3 3 2 2 2 2 1 1 1 2 1 2 2 4 6 8 10 11 14 15 15 14 14 14 14 14 13 13 13 13 12 12 12 12 12 12 11 11 10
4 3 2 2 3 2 1 2 2 2 1 1 1 2 2 2 2 3 4 5 7 9 11 15 17 16 15 14 15 15 15 15 14 14 14 14 13 14 13 13 13 12 12
4 3 2 3 3 1 1 1 1 1 1 2 3 1 1 2 2 2 2 3 4 7 8 9 13 14 16 15 14 15 15 15 15 16 16 15 15 15 15 15 14 14 14
4 3 1 1 1 1 1 1 1 1 2 1 1 1 2 2 2 2 2 1 1 3 4 6 9 10 11 14 15 14 13 13 14 14 15 15 15 16 16 16 15 15 16
4 4 2 1 2 1 1 1 1 1 2 1 1 1 1 1 1 1 2 2 2 2 2 4 5 6 7 8 10 13 13 12 12 12 13 12 13 13 13 14 14 15 15
5 3 3 2 1 2 2 2 2 1 1 2 1 1 1 1 1 1 1 1 2 2 1 1 3 4 5 5 6 8 9 10 11 11 12 13 13 12 12 12 12 13 14
4 3 2 2 1 1 1 2 2 1 1 2 2 2 2 1 1 1 1 1 1 2 2 2 1 3 4 5 5 6 7 8 9 10 11 11 12 11 11 11 11 12 12
3 3 3 2 2 1 1 0 1 1 1 1 2 2 2 2 2 2 2 1 1 1 1 1 1 3 4 4 5 5 5 6 6 7 9 9 9 9 9 8 8 8 9
4 4 4 3 3 2 2 2 1 1 1 2 2 2 1 1 2 2 2 2 2 2 1 1 1 2 3 3 3 5 6 7 6 6 5 6 7 7 7 7 7 7 7
4 4 4 4 3 3 3 2 2 2 2 2 2 2 2 2 2 1 2 2 2 2 1 1 1 2 3 4 4 4 5 7 7 6 5 5 5 6 6 6 6 6 5
3 4 4 4 4 3 3 3 2 3 3 2 3 2 2 2 2 1 2 2 2 2 1 1 1 2 3 5 4 5 4 5 6 6 5 4 4 4 4 4 4 4 4
3 3 4 4 4 3 3 3 2 2 2 2 2 2 2 2 2 1 1 2 2 3 2 2 1 1 3 4 6 6 4 4 5 5 6 5 4 4 4 3 3 3 2
2 2 3 4 4 4 3 3 2 2 2 1 1 0 1 2 2 2 2 2 2 2 2 1 1 1 2 3 5 6 5 5 5 6 6 5 5 4 4 3 3 2 2
3 4 4 4 4 3 3 2 2 2 1 1 1 1 1 1 2 2 2 2 1 0 1 1 0 1 1 2 4 4 4 5 4 6 7 7 6 5 4 3 3 2 2
5 4 4 3 3 3 3 3 2 2 2 2 1 0 1 1 2 2 2 2 1 1 2 2 1 1 1 2 3 3 3 3 4 6 8 8 7 6 5 4 4 3 3
5 4 4 4 3 3 3 3 2 1 1 1 0 0 1 1 2 2 2 1 1 1 1 2 2 1 1 2 2 1 1 2 3 4 7 7 7 7 6 5 5 4 4
5 4 4 4 4 3 2 2 2 2 1 1 0 0 0 1 2 2 2 1 1 2 1 2 2 2 1 1 2 1 1 1 1 2 4 5 6 7 7 6 5 5 4
6 5 4 3 3 3 2 2 2 3 2 2 1 1 1 1 0 1 1 1 1 1 1 1 2 2 2 2 2 2 2 1 1 1 2 3 4 5 6 6 5 5 5
5 5 5 4 3 3 3 3 1 1 1 2 2 1 2 2 1 1 2 1 1 2 2 1 1 2 2 1 2 2 2 2 1 1 1 1 3 2 4 5 6 6 6
5 5 5 5 4 3 4 3 1 1 1 1 1 2 3 1 1 1 1 2 2 3 3 3 2 2 2 2 3 2 2 2 2 2 2 1 1 2 4 5 7 7 7
5 5 5 5 4 4 4 3 0 2 1 1 1 1 1 1 1 2 2 2 1 1 3 3 2 2 2 1 3 3 3 2 1 1 1 1 1 1 2 6 9 10 8
5 6 5 5 5 4 4 3 2 2 2 2 1 0 1 1 2 2 1 1 1 1 0 1 4 4 3 3 3 2 2 2 1 1 1 1 1 1 1 2 7 11 11
4 4 5 5 5 4 4 4 3 3 3 3 2 1 1 1 0 1 1 1 2 1 1 1 1 3 3 4 4 3 2 2 1 1 1 1 1 0 1 1 3 7 9
Wind_Direction
143 145 163 177 187 174 174 195 200 164 169 206 214 172 144 143 127 137 155 166 169 172 175 180 184 187 190 192 193 194 197 199 197 195 195 193 193 194 194 194 195 197 197
146 150 166 199 216 184 179 184 189 167 192 212 216 199 181 150 152 149 156 171 180 182 185 189 193 196 199 200 202 204 206 205 205 205 203 202 203 204 205 204 203 205 207
150 168 182 203 220 193 183 196 187 177 198 196 201 219 209 187 181 171 165 174 184 190 192 195 197 201 205 207 208 210 212 211 211 211 211 211 211 211 212 212 211 213 215
171 188 187 208 203 206 195 201 212 196 204 200 214 224 207 193 195 189 190 187 184 189 198 203 204 205 207 210 211 213 214 214 214 215 217 217 217 216 217 217 217 218 220
177 192 200 189 202 217 198 219 178 184 195 205 241 233 220 197 203 209 194 191 191 185 187 200 205 206 209 214 217 218 218 217 218 220 221 222 222 222 221 221 222 223 224
193 201 209 198 209 191 168 144 151 189 203 220 246 258 259 225 203 206 212 193 185 193 193 188 194 208 213 216 218 220 220 220 221 222 223 224 225 225 224 225 226 227 228
195 210 252 166 204 183 181 187 177 200 214 204 224 313 294 274 220 190 190 178 189 182 177 183 186 194 200 213 218 218 218 221 223 226 227 227 228 229 228 227 228 231 230
194 203 209 207 185 189 199 216 194 228 245 201 200 195 261 289 288 242 169 176 196 179 193 200 183 190 193 187 205 217 222 223 229 232 231 229 230 231 231 230 229 230 228
197 217 171 208 223 179 181 202 196 206 243 248 228 179 194 219 317 281 216 186 182 192 213 196 178 175 182 169 167 197 211 221 228 232 230 227 228 229 229 229 230 229 228
191 191 182 178 212 196 181 206 165 206 234 248 252 240 234 190 202 255 255 241 224 210 209 216 160 150 152 142 159 174 196 215 228 231 228 226 226 227 229 232 235 235 234
186 185 178 177 172 193 188 185 113 191 220 245 250 250 252 263 235 224 243 245 278 263 207 200 140 120 138 152 156 158 171 194 214 224 226 225 225 226 229 230 232 235 237
183 183 180 178 179 195 192 195 207 224 234 258 276 276 248 251 254 236 234 241 245 257 215 175 163 133 142 132 142 155 166 179 190 198 209 219 223 227 230 233 235 238 238
178 183 186 179 185 193 197 196 188 235 239 242 252 270 274 269 269 246 225 238 261 264 230 199 187 132 146 131 137 150 165 169 173 180 190 207 221 228 228 230 233 237 241
181 174 175 180 189 198 208 181 206 215 214 230 247 251 270 274 282 251 229 221 253 255 248 219 168 135 132 134 141 145 147 163 170 177 183 188 195 203 210 213 218 223 227
189 168 175 185 190 203 217 188 203 218 197 223 252 261 264 278 286 291 257 232 228 241 248 224 196 151 134 138 147 141 129 157 170 174 176 178 177 173 173 179 186 187 197
184 173 180 190 195 199 200 198 199 200 205 213 223 275 290 300 308 311 282 266 259 245 240 233 239 180 147 150 141 136 136 153 172 170 169 166 161 159 163 172 175 175 178
186 192 198 199 190 188 189 184 193 198 202 213 244 230 256 292 318 317 316 297 281 206 221 251 263 104 132 134 133 145 151 158 155 166 168 163 159 160 159 160 163 164 165
194 194 192 190 188 180 180 180 193 198 200 216 226 281 304 294 292 294 298 296 286 256 214 227 229 217 184 154 152 168 161 153 145 170 173 171 168 167 161 156 153 148 142
188 187 179 180 177 177 180 173 179 188 190 181 202 241 279 297 283 280 277 286 276 275 225 212 217 206 171 156 157 170 147 141 154 157 167 173 177 176 167 161 149 139 135
181 181 177 170 161 166 169 164 167 176 182 171 145 201 266 285 287 281 269 274 273 269 244 207 189 175 166 175 163 178 169 158 161 144 145 162 179 180 167 157 154 151 149
180 167 165 161 164 174 177 185 195 196 196 210 209 197 160 139 125 290 282 280 273 272 261 227 196 178 183 177 190 197 187 166 174 147 144 165 168 165 165 162 165 164 162
174 165 167 171 181 180 128 129 192 192 197 224 232 222 194 171 167 199 231 249 233 242 265 250 228 218 210 198 202 202 184 181 217 178 167 202 171 151 157 157 167 168 167
179 176 174 176 167 147 139 130 127 218 199 233 279 290 285 285 160 259 242 234 237 231 230 238 250 251 221 203 196 200 195 197 210 191 166 206 165 166 171 168 168 172 177
184 183 183 181 168 166 158 143 216 210 201 210 234 276 306 333 330 309 250 219 209 230 244 230 223 245 232 215 199 207 200 187 167 149 142 202 204 209 173 172 184 186 191
189 185 183 183 174 170 167 170 208 218 201 205 210 222 183 266 334 338 263 230 203 221 310 199 195 195 199 191 169 164 186 177 210 199 153 210 221 239 195 184 192 195 199
191 189 185 178 177 173 171 177 203 228 212 200 186 165 125 162 79 37 250 241 236 242 255 252 210 199 196 187 182 186 195 205 236 215 176 190 210 179 246 212 193 199 208
Height
1552 1553 1554 1555 1556 1557 1558 1559 1560 1561 1562 1562 1563 1564 1565 1565 1566 1565 1566 1567 1567 1568 1568 1569 1570 1571 1571 1572 1573 1574 1575 1576 1577 1578 1579 1580 1581 1581 1582 1583 1584 1585 1585
1552 1553 1554 1555 1556 1557 1558 1559 1560 1560 1561 1562 1563 1564 1564 1565 1565 1566 1566 1566 1567 1567 1568 1568 1569 1570 1570 1571 1572 1573 1574 1575 1576 1577 1578 1578 1579 1580 1581 1582 1582 1583 1584
1552 1553 1554 1555 1556 1557 1558 1558 1559 1560 1561 1561 1562 1563 1563 1564 1564 1565 1565 1565 1566 1566 1567 1567 1568 1568 1569 1570 1570 1571 1572 1573 1574 1575 1576 1577 1578 1578 1579 1580 1581 1581 1582
1552 1552 1553 1554 1555 1556 1557 1558 1558 1559 1560 1560 1561 1562 1562 1563 1563 1564 1564 1564 1564 1565 1565 1566 1566 1567 1567 1568 1569 1569 1570 1571 1572 1573 1574 1575 1575 1576 1577 1578 1578 1579 1580
1551 1552 1553 1554 1555 1556 1557 1557 1557 1558 1559 1559 1560 1560 1561 1561 1562 1562 1563 1563 1563 1564 1564 1564 1564 1565 1565 1566 1566 1567 1568 1569 1570 1571 1571 1572 1573 1574 1574 1575 1576 1577 1577
1550 1551 1552 1553 1554 1555 1556 1556 1557 1557 1558 1558 1559 1559 1559 1560 1560 1560 1561 1562 1562 1562 1562 1562 1562 1563 1563 1564 1564 1565 1565 1566 1567 1568 1569 1569 1570 1571 1572 1572 1573 1574 1574
1549 1550 1551 1552 1552 1554 1554 1555 1556 1556 1556 1557 1557 1557 1558 1558 1558 1558 1559 1559 1560 1561 1560 1560 1560 1560 1561 1561 1562 1562 1563 1564 1564 1565 1566 1566 1567 1568 1568 1569 1570 1570 1571
1548 1549 1550 1551 1551 1552 1553 1554 1554 1555 1555 1556 1556 1556 1556 1557 1556 1557 1557 1557 1558 1558 1559 1559 1559 1559 1559 1559 1559 1560 1561 1561 1562 1562 1563 1563 1564 1564 1565 1566 1566 1567 1568
1546 1547 1548 1549 1550 1551 1551 1552 1552 1553 1554 1555 1555 1555 1555 1555 1555 1555 1555 1556 1556 1556 1556 1557 1556 1556 1556 1557 1557 1557 1558 1558 1559 1559 1559 1559 1560 1561 1561 1562 1563 1563 1564
1545 1546 1547 1548 1549 1549 1550 1550 1551 1551 1552 1552 1553 1553 1554 1554 1554 1553 1554 1553 1554 1554 1554 1554 1554 1554 1554 1554 1554 1554 1555 1555 1555 1555 1555 1556 1556 1557 1557 1558 1558 1559 1560
1544 1545 1545 1546 1547 1548 1548 1549 1550 1550 1550 1551 1551 1551 1551 1552 1552 1552 1552 1552 1552 1552 1552 1552 1551 1551 1551 1551 1551 1551 1551 1551 1552 1552 1552 1552 1552 1553 1553 1554 1555 1555 1555
1543 1543 1544 1544 1545 1546 1546 1547 1548 1548 1549 1549 1549 1549 1550 1550 1550 1550 1550 1550 1550 1550 1549 1549 1549 1549 1548 1548 1548 1548 1548 1548 1548 1548 1548 1548 1548 1549 1549 1550 1550 1551 1551
1541 1542 1542 1543 1543 1544 1545 1545 1546 1546 1546 1547 1547 1547 1547 1548 1548 1548 1548 1547 1547 1547 1547 1547 1546 1546 1546 1545 1545 1545 1545 1545 1544 1544 1544 1545 1545 1545 1545 1546 1546 1546 1547
1540 1541 1541 1541 1542 1542 1543 1543 1543 1544 1544 1545 1545 1545 1545 1545 1545 1545 1545 1545 1544 1544 1544 1544 1544 1544 1543 1543 1542 1542 1542 1541 1541 1541 1541 1541 1541 1541 1541 1542 1542 1542 1543
1539 1539 1539 1540 1540 1540 1541 1541 1542 1542 1542 1543 1543 1543 1543 1543 1543 1543 1542 1542 1543 1542 1541 1541 1541 1541 1540 1540 1540 1539 1539 1538 1537 1537 1538 1538 1538 1538 1538 1538 1538 1538 1539
1536 1537 1537 1538 1538 1538 1539 1539 1540 1540 1541 1541 1541 1540 1540 1540 1540 1540 1540 1539 1539 1539 1538 1538 1539 1538 1538 1537 1537 1537 1536 1536 1536 1535 1535 1535 1535 1535 1535 1535 1535 1535 1535
1533 1534 1535 1535 1536 1536 1537 1537 1538 1538 1539 1539 1539 1539 1538 1538 1538 1537 1537 1537 1536 1536 1536 1535 1536 1536 1535 1535 1534 1534 1534 1533 1533 1533 1533 1533 1533 1533 1532 1532 1532 1532 1532
1531 1532 1532 1533 1534 1534 1535 1535 1536 1536 1537 1537 1537 1536 1536 1535 1535 1534 1534 1534 1534 1534 1534 1533 1533 1533 1533 1533 1532 1532 1531 1531 1531 1531 1531 1531 1530 1530 1530 1530 1529 1529 1529
1528 1529 1530 1530 1531 1532 1533 1533 1534 1534 1534 1534 1534 1534 1533 1532 1532 1532 1531 1531 1531 1531 1531 1530 1530 1530 1530 1530 1530 1530 1530 1529 1529 1529 1528 1528 1528 1528 1528 1527 1527 1527 1526
1525 1526 1528 1528 1529 1530 1531 1531 1531 1532 1531 1531 1531 1531 1530 1530 1529 1529 1528 1528 1528 1528 1528 1527 1527 1527 1527 1527 1527 1527 1527 1527 1527 1527 1526 1526 1526 1526 1526 1525 1525 1525 1524
1523 1525 1526 1526 1527 1528 1528 1528 1529 1529 1529 1528 1528 1528 1528 1527 1527 1526 1526 1525 1525 1525 1525 1524 1524 1524 1525 1524 1524 1524 1525 1525 1525 1524 1524 1524 1524 1524 1524 1524 1523 1523 1523
1521 1522 1523 1524 1524 1525 1525 1526 1526 1526 1526 1526 1526 1525 1525 1524 1524 1524 1523 1523 1522 1522 1522 1522 1521 1521 1521 1521 1521 1522 1522 1522 1522 1523 1522 1522 1522 1522 1522 1522 1522 1522 1521
1518 1519 1520 1521 1521 1522 1522 1523 1524 1524 1524 1523 1523 1523 1522 1522 1521 1521 1520 1520 1520 1519 1519 1519 1519 1518 1518 1518 1519 1519 1519 1520 1520 1520 1521 1520 1521 1520 1520 1520 1520 1520 1519
1515 1516 1516 1518 1518 1519 1520 1520 1521 1521 1521 1520 1520 1520 1519 1519 1518 1518 1517 1517 1516 1516 1516 1516 1516 1516 1516 1516 1516 1517 1517 1518 1518 1519 1519 1518 1518 1518 1518 1518 1518 1518 1517
1512 1512 1513 1514 1515 1515 1516 1517 1518 1517 1517 1517 1517 1517 1516 1516 1515 1515 1514 1514 1514 1514 1514 1514 1514 1513 1513 1513 1514 1514 1514 1515 1515 1516 1516 1516 1516 1516 1516 1516 1516 1516 1516
1509 1509 1509 1510 1511 1512 1513 1513 1514 1514 1514 1514 1514 1513 1513 1513 1513 1512 1511 1511 1511 1511 1511 1511 1512 1511 1511 1511 1511 1512 1512 1513 1513 1513 1514 1514 1514 1514 1514 1514 1514 1513 1513